Regional Weather Roundup
Issued by NWS Boston, MA

Current Version | Previous Version | Text Only | Print | Product List | Glossary Off
Versions: 1 2 3 4 5 6 7 8 9 10 11 12 13 14 15 16 17 18 19 20 21 22 23 24 25 26 27 28 29 30 31 32 33 34 35 36 37 38 39 40 41 42 43 44 45 46 47 48 49 50
000 ASUS41 KBOX 212210 RWRBOX REGIONAL WEATHER ROUNDUP NATIONAL WEATHER SERVICE BOSTON/NORTON MA 600 PM EDT THU MAR 21 2019 NOTE: "FAIR" INDICATES FEW OR NO CLOUDS BELOW 12,000 FEET WITH NO SIGNIFICANT WEATHER AND/OR OBSTRUCTIONS TO VISIBILITY. MAZALL-212300- EASTERN MASSACHUSETTS CITY SKY/WX TMP DP RH WIND PRES REMARKS BOSTON CLOUDY 44 35 70 E14 30.04F BEVERLY FAIR 42 31 64 SE12 30.04F LAWRENCE CLOUDY 45 23 42 SE6 30.05F BEDFORD NOT AVBL BLUE HILL N/A 45 30 55 SE7 30.01F NORWOOD FAIR 49 32 52 S8 30.03F MARSHFIELD NOT AVBL PLYMOUTH FAIR 43 34 70 SE10 30.04F TAUNTON FAIR 47 34 60 SE10 30.03F NEW BEDFORD FAIR 44 36 73 E12 30.03S $$ MAZALL-212300- CAPE COD AND THE ISLANDS CITY SKY/WX TMP DP RH WIND PRES REMARKS FALMOUTH FAIR 41 34 75 SE14 30.04F HYANNIS NOT AVBL CHATHAM FAIR 41 34 76 E12 30.06F PROVINCETOWN FAIR 42 34 73 SE9 30.06F NANTUCKET FAIR 42 35 76 E14 30.03F MARTHAS VNYRD FAIR 45 36 70 E15 30.02 $$ MAZALL-212300- CENTRAL AND WESTERN MASSACHUSETTS CITY SKY/WX TMP DP RH WIND PRES REMARKS WORCESTER CLOUDY 42 30 62 SE9 29.99F FITCHBURG CLOUDY 47 28 47 S7 30.02F ORANGE CLOUDY 46 27 47 SE5 29.99F SPRINGFIELD CLOUDY 47 29 49 SE8 29.97F WESTFIELD CLOUDY 46 29 51 VRB6 29.98F NORTH ADAMS CLOUDY 39 35 86 E10 29.96F PITTSFIELD CLOUDY 38 34 85 NE5 29.92F $$ RIZALL-212300- RHODE ISLAND CITY SKY/WX TMP DP RH WIND PRES REMARKS PROVIDENCE CLOUDY 46 35 65 SE8 30.02F NEWPORT FAIR 44 36 73 E10 30.01 SMITHFIELD FAIR 45 34 65 SE7 30.01F WESTERLY CLOUDY 45 37 73 E15 30.00F $$ CTZALL-212300- CONNECTICUT CITY SKY/WX TMP DP RH WIND PRES REMARKS BRADLEY INTL CLOUDY 47 32 56 SE13 29.98F HARTFORD CLOUDY 47 33 58 E6 29.98F BRIDGEPORT CLOUDY 43 37 79 NE22 29.90F DANBURY PTSUNNY 44 36 73 E12 29.90F GROTON NOT AVBL NEW HAVEN CLOUDY 47 37 68 E12G18 29.93F CHESTER NOT AVBL MERIDEN CLOUDY 46 35 65 VRB3 29.95 WILLIMANTIC CLOUDY 46 32 58 VRB5 30.00F OXFORD LGT RAIN 42 36 79 E10G16 29.93F $$ MEZ002-015-021-024-NHZ003-005-008-011-012-014-VTZ005-008-212300- NORTHERN NEW ENGLAND CITY SKY/WX TMP DP RH WIND PRES REMARKS PORTLAND ME CLOUDY 41 30 65 S10 30.08 BANGOR ME MOCLDY 41 25 53 S14G26 30.11F CONCORD NH CLOUDY 47 28 47 SE6 30.00F MANCHESTER NH CLOUDY 48 25 40 SE12 30.00F NASHUA NH MOCLDY 48 24 39 VRB3 30.02 PORTSMOUTH NH CLOUDY 41 30 64 SE14 30.04F JAFFREY NH CLOUDY 43 29 57 SE3 29.99F KEENE NH CLOUDY 41 35 79 CALM 30.00F BURLINGTON VT CLOUDY 44 35 70 S10 29.93F MT. WASHINGTON FOG 21 21 100 SW26 N/A VSB 1/8 WCI 4 $$ NYZ052-076-212300- EASTERN NEW YORK CITY SKY/WX TMP DP RH WIND PRES REMARKS ALBANY CLOUDY 42 35 76 SE6 29.96F NEW YORK CITY LGT RAIN 41 38 89 NE17 29.87F $$ ANZALL-212300- MARINE OBSERVATIONS STATION/POSITION TIME TEMP WIND PRES VSBY WAVE AIR SEA DIR/SP/G HT/PER (UTC) (F) (DEG/KT/KT) (MB) (MI) (FT/S) BOSTON BUOY 2150 40 39 110/ 10/ 10 1017.7F 2/ 5 BUZZARDS BAY 2100 90/ 18/ 19 1017.7F NANTUCKET SOUND 2150 40 38 110/ 14/ 16 1017.3F 2/ 3 MASS BAY-STELLWA 2104 39 39 130/ 12/ 16 1017.2F 1 7/8 2/ 5 ISLE OF SHOALS 2100 40 130/ 17/ 18 1017.8F S OF BLOCK IS 2130 42 N/A 6/ 8 $$ ......................KEY......................... SKY/WX - SKY CONDITION/PRESENT WEATHER TMP - TEMPERATURE IN FAHRENHEIT DWPT - DEWPOINT IN FAHRENHEIT RH - RELATIVE HUMIDITY IN PERCENT WIND - DIRECTION AND SPEED IN MPH PRES - MEAN SEA LEVEL PRESSURE IN INCHES OF HG WCI - WIND CHILL INDEX VSB - VISIBILITY IN MILES HX - HEAT INDEX TC - TEMPERATURE IN CELSIUS VRB - VARIABLE WIND DIRECTION N/A - NOT AVAILABLE

USA.gov is the U.S. government's official web portal to all federal, state and local government web resources and services.